Data for 01/07/2017

Time Sea-Level Adjusted Pressure Absolute Pressure Temperature Relative Humidity Dew Point   
(mb) (inHg) (mb) (inHg) (C) (F) (%) (C) (F)
00:05 1020 30.12 850 25.1 -12.3 9.8 60 -18.5 -1.3
00:10 1020 30.12 850 25.1 -12.7 9.2 58 -19.4 -2.8
00:15 1020 30.12 850 25.1 -12.9 8.8 58 -19.6 -3.2
00:20 1020 30.12 850 25.1 -13.4 7.9 59 -19.7 -3.5
00:25 1020 30.12 850 25.1 -13.9 7 62 -19.7 -3.5
00:30 1020 30.12 850 25.1 -14.1 6.6 64 -19.6 -3.2
00:35 1020 30.12 850 25.1 -14.2 6.5 66 -19.3 -2.7
00:40 1020 30.12 850 25.1 -13.5 7.7 64 -19 -2.2
00:45 1020 30.12 850 25.1 -12.8 9 65 -18 -0.5
00:50 1020 30.12 849 25.07 -12.4 9.6 65 -17.7 0.1
00:55 1020 30.12 849 25.07 -12.6 9.2 65 -17.9 -0.3
01:00 1020 30.12 849 25.07 -12.7 9.2 58 -19.3 -2.7
01:05 1020 30.12 849 25.07 -13 8.5 61 -19.1 -2.3
01:10 1020 30.12 849 25.07 -13.1 8.4 59 -19.5 -3.1
01:15 1020 30.12 849 25.07 -13 8.7 55 -20.2 -4.4
01:20 1020 30.12 849 25.07 -12.8 8.9 56 -19.8 -3.7
01:25 1020 30.12 849 25.07 -13.1 8.4 59 -19.6 -3.3
01:30 1020 30.12 849 25.07 -13.5 7.8 59 -19.8 -3.6
01:35 1020 30.12 849 25.07 -13.4 7.9 63 -19 -2.3
01:40 1020 30.12 849 25.07 -12.5 9.5 59 -19 -2.3
01:45 1020 30.12 849 25.07 -11.9 10.7 53 -19.5 -3.1
01:50 1020 30.12 849 25.07 -11.9 10.6 55 -19.3 -2.7
01:55 1020 30.12 850 25.1 -12 10.4 62 -17.8 -0.1
02:00 1020 30.12 850 25.1 -12.3 9.8 64 -17.9 -0.2
02:05 1021 30.15 850 25.1 -12.2 10 61 -18.3 -0.9
02:10 1021 30.15 850 25.1 -12.3 9.8 61 -18.4 -1.1
02:15 1021 30.15 850 25.1 -12.1 10.3 63 -17.8 -0
02:20 1021 30.15 850 25.1 -12 10.3 59 -18.5 -1.3
02:25 1021 30.15 850 25.1 -13 8.6 63 -18.6 -1.5
02:30 1021 30.15 850 25.1 -13.8 7.2 66 -18.8 -1.8
02:35 1021 30.15 850 25.1 -13.7 7.4 67 -18.6 -1.5
02:40 1021 30.15 850 25.1 -13.1 8.5 60 -19.3 -2.8
02:45 1021 30.15 850 25.1 -12.7 9.2 58 -19.4 -2.8
02:50 1021 30.15 850 25.1 -12.6 9.3 58 -19.4 -2.9
02:55 1021 30.15 850 25.1 -12.8 8.9 58 -19.5 -3
03:00 1021 30.15 850 25.1 -13.1 8.5 59 -19.5 -3.2
03:05 1021 30.15 850 25.1 -13.2 8.3 59 -19.7 -3.4
03:10 1021 30.15 850 25.1 -13.3 8.1 60 -19.6 -3.2
03:15 1021 30.15 850 25.1 -13.6 7.6 62 -19.4 -3
03:20 1021 30.15 850 25.1 -13.7 7.4 62 -19.5 -3.1
03:25 1021 30.15 850 25.1 -13.8 7.2 62 -19.6 -3.4
03:30 1021 30.15 850 25.1 -13.5 7.7 61 -19.6 -3.3
03:35 1021 30.15 850 25.1 -13.2 8.2 59 -19.6 -3.3
03:40 1021 30.15 850 25.1 -13.4 7.8 61 -19.4 -2.8
03:45 1021 30.15 850 25.1 -13.8 7.1 65 -19 -2.2
03:50 1020 30.12 850 25.1 -14.1 6.6 66 -19.2 -2.5
03:55 1021 30.15 850 25.1 -13.6 7.6 62 -19.5 -3
04:00 1021 30.15 850 25.1 -13.1 8.4 60 -19.3 -2.8
04:05 1021 30.15 850 25.1 -13.3 8.1 67 -18.2 -0.7
04:10 1021 30.15 850 25.1 -13.6 7.6 65 -18.8 -1.8
04:15 1021 30.15 850 25.1 -13.8 7.1 66 -19 -2.1
04:20 1020 30.12 850 25.1 -13.8 7.2 64 -19.2 -2.6
04:25 1021 30.15 850 25.1 -14 6.8 65 -19.3 -2.7
04:30 1021 30.15 850 25.1 -13.9 7 66 -19 -2.2
04:35 1021 30.15 850 25.1 -14.8 5.4 69 -19.3 -2.8
04:40 1021 30.15 850 25.1 -14.8 5.3 68 -19.6 -3.2
04:45 1021 30.15 850 25.1 -14.6 5.7 67 -19.4 -2.9
04:50 1021 30.15 850 25.1 -14.5 5.9 68 -19.3 -2.7
04:55 1021 30.15 850 25.1 -14.4 6.1 67 -19.2 -2.6
05:00 1021 30.15 850 25.1 -14.5 5.9 71 -18.7 -1.7
05:05 1021 30.15 850 25.1 -14.3 6.2 70 -18.7 -1.6
05:10 1021 30.15 850 25.1 -14.7 5.6 73 -18.5 -1.4
05:15 1021 30.15 850 25.1 -14.6 5.7 74 -18.3 -1
05:20 1021 30.15 850 25.1 -14.2 6.4 73 -18.1 -0.7
05:25 1021 30.15 850 25.1 -14.3 6.3 72 -18.2 -0.8
05:30 1021 30.15 850 25.1 -14.7 5.6 74 -18.4 -1.1
05:35 1021 30.15 850 25.1 -14.8 5.4 77 -18 -0.4
05:40 1021 30.15 850 25.1 -15.1 4.9 75 -18.6 -1.5
05:45 1021 30.15 850 25.1 -15 5 75 -18.5 -1.3
05:50 1021 30.15 850 25.1 -14.5 6 73 -18.4 -1
05:55 1021 30.15 850 25.1 -14.5 5.9 72 -18.5 -1.2
06:00 1021 30.15 850 25.1 -14.6 5.7 72 -18.6 -1.4
06:05 1021 30.15 850 25.1 -14.5 6 71 -18.6 -1.5
06:10 1021 30.15 850 25.1 -14 6.7 69 -18.5 -1.3
06:15 1021 30.15 850 25.1 -13.8 7.1 69 -18.4 -1.2
06:20 1021 30.15 850 25.1 -13.5 7.8 67 -18.4 -1.2
06:25 1021 30.15 850 25.1 -13.4 8 64 -18.7 -1.7
06:30 1021 30.15 850 25.1 -13.5 7.7 64 -18.9 -1.9
06:35 1021 30.15 850 25.1 -14 6.8 66 -19.1 -2.4
06:40 1021 30.15 850 25.1 -14.5 5.9 63 -20.1 -4.1
06:45 1021 30.15 850 25.1 -14.4 6.1 62 -20.1 -4.2
06:50 1021 30.15 850 25.1 -14.3 6.2 66 -19.4 -2.9
06:55 1021 30.15 850 25.1 -15.2 4.7 73 -19 -2.2
07:00 1021 30.15 850 25.1 -14.8 5.5 67 -19.7 -3.4
07:05 1021 30.15 850 25.1 -14.2 6.5 67 -19.1 -2.4
07:10 1021 30.15 850 25.1 -14 6.9 66 -19.1 -2.3
07:15 1021 30.15 850 25.1 -14.6 5.8 72 -18.5 -1.3
07:20 1021 30.15 850 25.1 -14.6 5.7 69 -19.1 -2.4
07:25 1021 30.15 850 25.1 -14.8 5.4 70 -19.1 -2.4
07:30 1021 30.15 850 25.1 -14.3 6.3 68 -19 -2.3
07:35 1021 30.15 850 25.1 -13.7 7.3 63 -19.3 -2.7
07:40 1021 30.15 850 25.1 -13.7 7.4 64 -19.1 -2.5
07:45 1021 30.15 850 25.1 -14.1 6.7 62 -19.8 -3.6
07:50 1021 30.15 850 25.1 -14.8 5.4 68 -19.5 -3
07:55 1021 30.15 850 25.1 -14.4 6.1 67 -19.2 -2.6
08:00 1021 30.15 850 25.1 -14.9 5.2 69 -19.4 -3
08:05 1021 30.15 851 25.13 -14.8 5.4 68 -19.4 -2.9
08:10 1021 30.15 851 25.13 -14.7 5.6 69 -19.2 -2.5
08:15 1021 30.15 851 25.13 -14.5 6 67 -19.4 -2.8
08:20 1021 30.15 851 25.13 -15 5.1 67 -19.8 -3.7
08:25 1022 30.18 851 25.13 -15.4 4.2 65 -20.6 -5
08:30 1022 30.18 851 25.13 -15.2 4.7 62 -21 -5.8
08:35 1022 30.18 851 25.13 -15 5.1 63 -20.5 -4.9
08:40 1022 30.18 851 25.13 -13.9 6.9 61 -20 -4
08:45 1022 30.18 851 25.13 -13.4 7.9 60 -19.7 -3.4
08:50 1022 30.18 851 25.13 -13.3 8 58 -19.9 -3.9
08:55 1022 30.18 851 25.13 -13 8.6 57 -19.8 -3.6
09:00 1022 30.18 851 25.13 -13.4 7.9 61 -19.4 -2.9
09:05 1022 30.18 851 25.13 -13.6 7.6 59 -19.9 -3.9
09:10 1022 30.18 851 25.13 -13.3 8.1 58 -19.9 -3.8
09:15 1022 30.18 851 25.13 -13.6 7.6 59 -19.9 -3.8
09:20 1022 30.18 851 25.13 -13.3 8.2 58 -19.8 -3.6
09:25 1022 30.18 851 25.13 -12.8 9 57 -19.7 -3.4
09:30 1022 30.18 851 25.13 -12.8 8.9 58 -19.5 -3.1
09:35 1022 30.18 851 25.13 -13.1 8.4 58 -19.7 -3.4
09:40 1022 30.18 851 25.13 -13.2 8.2 56 -20.3 -4.5
09:45 1022 30.18 851 25.13 -13.1 8.4 56 -20.1 -4.2
09:50 1022 30.18 851 25.13 -12.3 9.8 54 -19.9 -3.8
09:55 1022 30.18 851 25.13 -10.9 12.4 49 -19.7 -3.5
10:00 1022 30.18 851 25.13 -9.9 14.2 45 -19.8 -3.6
10:05 1022 30.18 851 25.13 -9.7 14.5 45 -19.5 -3.1
10:10 1022 30.18 851 25.13 -10.5 13 48 -19.5 -3.1
10:15 1022 30.18 851 25.13 -10.3 13.5 48 -19.4 -2.9
10:20 1022 30.18 851 25.13 -10.1 13.9 46 -19.8 -3.6
10:25 1022 30.18 851 25.13 -9.9 14.1 46 -19.6 -3.3
10:30 1022 30.18 851 25.13 -10.1 13.9 47 -19.3 -2.7
10:35 1022 30.18 851 25.13 -10 13.9 47 -19.4 -2.9
10:40 1022 30.18 851 25.13 -9.9 14.2 46 -19.4 -2.9
10:45 1022 30.18 851 25.13 -9.8 14.4 47 -19.1 -2.4
10:50 1022 30.18 851 25.13 -10 13.9 48 -19.2 -2.5
10:55 1022 30.18 851 25.13 -9.7 14.5 46 -19.4 -2.9
11:00 1022 30.18 851 25.13 -9 15.9 46 -18.7 -1.7
11:05 1021 30.15 851 25.13 -9.1 15.6 45 -19 -2.1
11:10 1021 30.15 850 25.1 -9 15.9 44 -19 -2.3
11:15 1021 30.15 850 25.1 -8.7 16.4 42 -19.3 -2.7
11:20 1021 30.15 850 25.1 -8.7 16.4 45 -18.6 -1.5
11:25 1021 30.15 850 25.1 -8.7 16.4 45 -18.6 -1.5
11:30 1021 30.15 850 25.1 -8 17.5 43 -18.6 -1.5
11:35 1021 30.15 850 25.1 -7 19.4 40 -18.5 -1.3
11:40 1021 30.15 850 25.1 -6.4 20.4 38 -18.5 -1.3
11:45 1020 30.12 850 25.1 -6.6 20.1 40 -18.1 -0.6
11:50 1020 30.12 850 25.1 -7.3 18.9 41 -18.4 -1.2
11:55 1020 30.12 850 25.1 -7.5 18.5 41 -18.5 -1.4
12:00 1020 30.12 850 25.1 -7.8 18 41 -18.8 -1.8
12:05 1020 30.12 850 25.1 -8.1 17.4 43 -18.7 -1.7
12:10 1020 30.12 850 25.1 -8.1 17.4 42 -19 -2.2
12:15 1020 30.12 850 25.1 -8.1 17.4 43 -18.6 -1.6
12:20 1020 30.12 850 25.1 -8.1 17.4 43 -18.6 -1.6
12:25 1020 30.12 850 25.1 -8.2 17.2 43 -18.7 -1.7
12:30 1020 30.12 850 25.1 -8.4 16.8 44 -18.8 -1.8
12:35 1020 30.12 850 25.1 -8.8 16.2 44 -18.9 -2.1
12:40 1020 30.12 849 25.07 -8.9 15.9 45 -18.9 -2.1
12:45 1020 30.12 849 25.07 -8.6 16.6 43 -19 -2.1
12:50 1020 30.12 849 25.07 -8.7 16.4 45 -18.7 -1.6
12:55 1020 30.12 849 25.07 -8.6 16.6 43 -19 -2.3
13:00 1020 30.12 849 25.07 -8.3 17.1 43 -18.6 -1.5
13:05 1019 30.09 849 25.07 -8.1 17.4 44 -18.4 -1.2
13:10 1019 30.09 848 25.04 -8.7 16.4 45 -18.5 -1.3
13:15 1019 30.09 848 25.04 -7.9 17.8 43 -18.4 -1.1
13:20 1019 30.09 848 25.04 -7.9 17.8 43 -18.3 -0.9
13:25 1019 30.09 848 25.04 -8.3 17 44 -18.5 -1.2
13:30 1019 30.09 848 25.04 -8.3 17 45 -18.3 -1
13:35 1019 30.09 848 25.04 -8.7 16.4 46 -18.3 -0.9
13:40 1019 30.09 848 25.04 -9.6 14.7 49 -18.4 -1.2
13:45 1019 30.09 848 25.04 -9.7 14.6 50 -18.3 -0.9
13:50 1019 30.09 848 25.04 -9.2 15.5 47 -18.6 -1.4
13:55 1019 30.09 849 25.07 -8.9 15.9 46 -18.5 -1.4
14:00 1019 30.09 848 25.04 -9 15.9 46 -18.6 -1.5
14:05 1019 30.09 848 25.04 -8.7 16.4 45 -18.6 -1.5
14:10 1019 30.09 848 25.04 -8.5 16.8 45 -18.5 -1.3
14:15 1019 30.09 848 25.04 -8.1 17.4 44 -18.4 -1.1
14:20 1019 30.09 848 25.04 -7.9 17.8 42 -18.7 -1.6
14:25 1019 30.09 848 25.04 -8 17.7 44 -18.2 -0.7
14:30 1019 30.09 848 25.04 -7.7 18.1 43 -18.3 -0.9
14:35 1019 30.09 848 25.04 -7.8 18 47 -17.3 0.9
14:40 1018 30.06 848 25.04 -8.1 17.4 46 -17.8 0
14:45 1018 30.06 848 25.04 -8.3 17.1 47 -17.6 0.3
14:50 1018 30.06 847 25.01 -8.3 17.1 47 -17.7 0.2
14:55 1018 30.06 847 25.01 -8.4 16.9 46 -17.9 -0.3
15:00 1018 30.06 847 25.01 -8.1 17.5 47 -17.6 0.4
15:05 1018 30.06 847 25.01 -7.9 17.8 46 -17.7 0.1
15:10 1018 30.06 847 25.01 -7.8 18.1 45 -17.7 0.1
15:15 1018 30.06 847 25.01 -7.8 18.1 44 -18.1 -0.5
15:20 1018 30.06 847 25.01 -7.7 18.1 45 -17.8 -0.1
15:25 1018 30.06 847 25.01 -7.6 18.2 45 -17.8 0
15:30 1018 30.06 847 25.01 -7.9 17.7 46 -17.6 0.3
15:35 1018 30.06 847 25.01 -7.9 17.7 47 -17.3 0.9
15:40 1018 30.06 847 25.01 -8.2 17.2 48 -17.4 0.7
15:45 1018 30.06 847 25.01 -8.4 16.9 49 -17.3 0.8
15:50 1017 30.03 847 25.01 -8.3 17 48 -17.5 0.6
15:55 1017 30.03 847 25.01 -8.6 16.4 47 -17.9 -0.3
16:00 1017 30.03 847 25.01 -8.8 16.2 49 -17.6 0.3
16:05 1017 30.03 847 25.01 -8.5 16.8 50 -17.2 1.1
16:10 1017 30.03 846 24.98 -8.6 16.6 54 -16.3 2.7
16:15 1017 30.03 846 24.98 -8.9 16 56 -16.2 2.8
16:20 1017 30.03 846 24.98 -9.5 14.9 59 -16.1 3
16:25 1017 30.03 846 24.98 -9.6 14.7 59 -16.2 2.9
16:30 1017 30.03 846 24.98 -9.5 14.9 59 -16 3.1
16:35 1017 30.03 846 24.98 -9.5 14.8 59 -16.2 2.9
16:40 1017 30.03 846 24.98 -9.4 15.1 57 -16.3 2.6
16:45 1017 30.03 846 24.98 -9.6 14.8 58 -16.3 2.7
16:50 1017 30.03 846 24.98 -9.8 14.4 59 -16.4 2.6
16:55 1017 30.03 846 24.98 -9.9 14.1 59 -16.6 2.1
17:00 1017 30.03 846 24.98 -10 14.1 58 -16.7 2
17:05 1017 30.03 846 24.98 -10.4 13.2 60 -16.8 1.8
17:10 1017 30.03 846 24.98 -10.8 12.6 63 -16.5 2.2
17:15 1017 30.03 846 24.98 -10.7 12.7 63 -16.5 2.3
17:20 1016 30 846 24.98 -10.7 12.8 62 -16.6 2.1
17:25 1016 30 846 24.98 -10.6 12.9 62 -16.5 2.3
17:30 1016 30 845 24.95 -10.6 12.9 63 -16.4 2.6
17:35 1016 30 845 24.95 -10.6 12.9 63 -16.4 2.5
17:40 1016 30 845 24.95 -10.6 12.8 63 -16.4 2.5
17:45 1016 30 845 24.95 -10.5 13 62 -16.5 2.3
17:50 1016 30 845 24.95 -10.5 13.1 63 -16.3 2.6
17:55 1016 30 845 24.95 -10.6 12.9 64 -16.1 3.1
18:00 1016 30 845 24.95 -10.6 13 62 -16.5 2.3
18:05 1016 30 845 24.95 -10.7 12.8 63 -16.5 2.3
18:10 1016 30 845 24.95 -10.7 12.8 61 -16.8 1.7
18:15 1016 30 845 24.95 -10.7 12.8 60 -17 1.4
18:20 1016 30 845 24.95 -10.4 13.2 59 -16.9 1.5
18:25 1016 30 845 24.95 -10.3 13.6 59 -16.8 1.7
18:30 1016 30 845 24.95 -10.2 13.6 60 -16.6 2.2
18:35 1016 30 845 24.95 -10.2 13.7 60 -16.4 2.4
18:40 1016 30 845 24.95 -10.2 13.7 62 -16.2 2.8
18:45 1016 30 845 24.95 -10.3 13.5 64 -15.9 3.4
18:50 1016 30 845 24.95 -10.3 13.5 62 -16.2 2.9
18:55 1016 30 845 24.95 -10.2 13.7 64 -15.8 3.5
19:00 1016 30 845 24.95 -10.1 13.8 63 -15.9 3.3
19:05 1016 30 845 24.95 -10 14.1 62 -16 3.2
19:10 1016 30 845 24.95 -10 14 61 -16.2 2.8
19:15 1016 30 845 24.95 -10 14.1 59 -16.6 2.2
19:20 1016 30 845 24.95 -10.1 13.8 61 -16.3 2.7
19:25 1016 30 845 24.95 -10 14 61 -16.2 2.8
19:30 1016 30 845 24.95 -9.9 14.2 62 -15.9 3.3
19:35 1016 30 845 24.95 -9.9 14.2 61 -16.1 3
19:40 1015 29.97 845 24.95 -10 14 56 -17.2 1.1
19:45 1015 29.97 844 24.92 -9.9 14.2 57 -16.9 1.6
19:50 1015 29.97 844 24.92 -9.8 14.4 60 -16.2 2.9
19:55 1015 29.97 844 24.92 -9.6 14.7 56 -16.7 1.9
20:00 1015 29.97 844 24.92 -9.7 14.6 55 -17.1 1.3
20:05 1015 29.97 844 24.92 -9.6 14.7 50 -18.3 -0.9
20:10 1015 29.97 844 24.92 -9.2 15.5 50 -17.8 0
20:15 1015 29.97 844 24.92 -8.9 16 56 -16.3 2.7
20:20 1015 29.97 844 24.92 -9 15.9 56 -16.2 2.8
20:25 1015 29.97 844 24.92 -8.9 16 57 -16 3.2
20:30 1015 29.97 844 24.92 -8.9 15.9 56 -16.3 2.7
20:35 1015 29.97 844 24.92 -9.2 15.5 57 -16.2 2.9
20:40 1015 29.97 844 24.92 -9.2 15.4 59 -15.9 3.4
20:45 1015 29.97 844 24.92 -9.3 15.3 59 -16 3.3
20:50 1015 29.97 844 24.92 -9.2 15.5 60 -15.5 4.1
20:55 1015 29.97 844 24.92 -9.1 15.6 58 -16.1 3.1
21:00 1015 29.97 844 24.92 -9.3 15.4 59 -15.9 3.5
21:05 1015 29.97 844 24.92 -9.3 15.2 59 -16 3.2
21:10 1015 29.97 844 24.92 -9.2 15.4 55 -16.6 2.1
21:15 1015 29.97 844 24.92 -9.2 15.5 56 -16.5 2.4
21:20 1015 29.97 844 24.92 -9.1 15.6 55 -16.5 2.3
21:25 1015 29.97 844 24.92 -9.1 15.6 56 -16.3 2.7
21:30 1015 29.97 844 24.92 -9 15.8 58 -15.9 3.3
21:35 1015 29.97 844 24.92 -8.9 16 57 -16 3.1
21:40 1015 29.97 844 24.92 -8.9 16 57 -15.9 3.4
21:45 1015 29.97 844 24.92 -8.9 16.1 59 -15.5 4.2
21:50 1015 29.97 844 24.92 -8.8 16.1 60 -15.2 4.6
21:55 1014 29.94 844 24.92 -8.7 16.3 61 -15 5
22:00 1015 29.97 844 24.92 -8.7 16.3 60 -15.1 4.9
22:05 1014 29.94 844 24.92 -8.7 16.4 61 -14.9 5.2
22:10 1014 29.94 844 24.92 -8.7 16.4 61 -14.9 5.1
22:15 1015 29.97 844 24.92 -8.7 16.3 62 -14.7 5.5
22:20 1015 29.97 844 24.92 -8.7 16.3 63 -14.6 5.8
22:25 1015 29.97 844 24.92 -8.9 16 67 -13.9 7
22:30 1015 29.97 844 24.92 -9.2 15.5 62 -15.2 4.7
22:35 1015 29.97 844 24.92 -9.2 15.4 62 -15.2 4.7
22:40 1015 29.97 844 24.92 -9.2 15.5 58 -16 3.2
22:45 1015 29.97 844 24.92 -9.1 15.5 62 -15.2 4.7
22:50 1015 29.97 844 24.92 -9.1 15.6 62 -15.2 4.6
22:55 1015 29.97 844 24.92 -9.1 15.7 62 -15 5
23:00 1015 29.97 844 24.92 -8.9 16 64 -14.5 5.9
23:05 1015 29.97 844 24.92 -8.8 16.1 66 -14 6.8
23:10 1015 29.97 844 24.92 -8.7 16.3 69 -13.4 7.9
23:15 1015 29.97 844 24.92 -8.6 16.4 71 -13.1 8.5
23:20 1015 29.97 844 24.92 -8.4 16.9 70 -12.9 8.8
23:25 1015 29.97 844 24.92 -8.3 17.1 71 -12.7 9.1
23:30 1015 29.97 844 24.92 -8.2 17.3 72 -12.4 9.7
23:35 1015 29.97 844 24.92 -8.1 17.4 72 -12.3 9.9
23:40 1015 29.97 844 24.92 -8 17.5 72 -12.3 9.9
23:45 1015 29.97 845 24.95 -8.2 17.3 72 -12.4 9.7
23:50 1015 29.97 844 24.92 -8.2 17.3 72 -12.4 9.8
23:55 1015 29.97 845 24.95 -8.2 17.3 73 -12.3 9.9
24:00 1015 29.97 845 24.95 -8.1 17.3 74 -12 10.5